COSMOS 732

Satellite information

Favourite Embed

Satellite Type and Status

PAYLOADIN ORBIT

Key statistics

Satellite COSMOS 732 at a glance.

Uptime

18304

Days in orbit

Revolutions

≈ 12.6

Per day

Orbit

LEO

Low Earth Orbit

Inclination

74.0

Latest

Satellite identification and parameters

Extended collection of information and parameters for COSMOS 732.

Object identification

Identified? True

Debris? False

Object name: COSMOS 732

International designator: 1975-045A

Object number (NORAD): 7820

Object ID (CCSDS): 7820

Country: COMMONWEALTH OF INDEPENDENT STATES (CIS)

Current information (Y/N): Y

RCS size: MEDIUM

Orbital parameters

Period: 114.584 minutes

Inclination: 74.018 deg

SMA: 7814.661 km

Apoapsis: 1469.881 km

Periapsis: 1403.171 km

RAAN: 97.926 deg

Eccentricy: 0.0042683

Argument of periapsis: 347.835 deg

Mean anomaly: 84.4566 deg

Mean motion: 12.56717177 rev/day

Mean motion (dot): -0.00000027 rev/day2

B* drag term: -0.000066263 1/REarth

Two-line elements (TLE)

Creation date: July 8, 2025, 2:27 a.m.

Reference frame: TEME

Reference center: EARTH

Epoch: July 7, 2025, 10 p.m. UTC

TLE line 0: 0 COSMOS 732

TLE line 1: 1 07820U 75045A 25188.91674118 -.00000027 00000-0 -66263-4 0 9997

TLE line 2: 2 07820 74.0180 97.9260 0042683 347.8350 84.4566 12.56717177299024

Live tracking on map

Real-time ground track for satellite COSMOS 732.

In-orbit conjunctions

There are no conjunctions computed for COSMOS 732, at the moment. Check back to stay up to date, as we update our databases every day.

Go to all conjunctions

Associated space launch

Military communications satellites

COSMOS 732 was lifted into orbit during the mission ‘Kosmos-3M | Strela-1M 89-96’, on board a Kosmos-3M space rocket.

The launch took place on May 28, 1975, 12:25 a.m. from 132/1 (132L).

For more information about the launch, click the button.

Launch to space Kosmos-3M | Strela-1M 89-96
Kosmos-3M | Strela-1M 89-96

Agency: N/A

Status: Launch Successful

Launch date: May 28, 1975, 12:25 a.m. UTC

Rocket: Kosmos-3M

Launch pad: 132/1 (132L)

Location: Plesetsk Cosmodrome, Russian Federation

...

Latest news about this satellite

There are no fresh news available about this satellite. Check back as we update our databases every day.


Newsletter sign-up

Weekly statistics, charts and insights to help you stay on top of the space industry.